GFSNE_925_thetae_021.txt.gz
Theta_e
336 333 332 331 333 333 334 332 331 328 327 331 331 332 332 330 328 328 328 329 329 330 329 329 328 328 328 327 326 325 321 318 319 319 318 317 317 318
337 337 335 333 336 332 333 333 331 330 329 332 329 327 329 329 329 328 329 329 329 328 326 328 329 329 329 328 327 326 325 324 322 320 319 318 318 317
340 337 337 335 335 333 333 332 332 333 334 332 330 329 332 330 330 330 328 328 328 328 327 328 329 328 328 327 326 325 324 324 323 322 321 320 321 320
337 338 336 336 334 333 332 332 334 333 332 332 332 331 331 328 327 327 326 327 327 331 330 328 327 325 325 325 325 325 325 325 324 323 323 322 321 322
338 338 334 334 332 333 335 335 336 334 333 333 333 332 331 329 329 329 328 329 328 327 328 326 326 325 325 324 324 324 324 324 325 324 323 323 323 321
339 340 338 336 333 335 336 337 335 334 334 333 333 332 331 330 330 328 328 327 327 327 327 326 326 323 323 322 322 321 321 321 322 323 323 323 324 323
337 338 336 334 333 335 336 336 335 334 333 332 332 330 329 329 330 329 329 328 328 326 325 324 324 323 322 317 314 315 318 318 319 323 322 323 322 321
337 337 336 335 334 336 336 334 334 332 331 331 330 328 328 329 329 329 328 327 326 323 323 320 318 319 319 320 320 320 320 321 322 323 322 321 320 319
336 337 339 337 337 328 333 334 333 332 328 330 329 328 324 324 329 329 327 326 326 322 319 319 320 321 320 320 321 322 322 323 323 322 320 318 318 317
338 340 339 337 331 330 333 333 332 329 328 330 329 324 328 329 329 328 327 326 323 321 320 321 321 321 320 319 316 314 314 315 317 318 319 318 316 317
338 338 338 335 327 333 332 330 331 329 330 330 328 330 328 326 328 329 326 322 320 321 322 320 321 318 315 312 312 314 316 318 319 318 319 320 318 317
335 334 334 332 325 331 330 329 331 330 330 328 327 328 327 326 323 323 322 322 321 320 321 320 320 315 313 313 315 317 319 319 319 319 319 318 317 316
332 331 332 331 330 331 330 330 330 329 329 326 325 324 322 320 321 322 317 316 318 320 314 316 316 315 316 316 318 318 318 318 319 318 316 316 316 317
334 334 333 330 330 332 331 330 329 328 324 321 319 319 320 321 316 315 313 314 315 315 311 309 311 310 315 318 318 317 317 318 317 316 315 315 315 313
335 334 334 332 332 330 330 330 328 325 320 319 319 321 321 317 315 312 312 311 309 308 308 310 311 314 318 317 317 316 317 316 314 315 314 314 312 311
334 332 332 330 327 328 328 327 324 321 320 320 320 321 319 314 313 312 310 308 307 307 308 309 311 316 316 315 315 315 315 315 313 313 312 311 310 310
332 330 328 326 326 325 324 323 322 321 321 320 321 322 315 313 312 309 308 308 308 309 308 308 307 309 316 315 315 314 314 314 312 312 310 309 309 310
328 328 328 328 327 326 325 324 323 323 322 321 319 315 313 312 309 308 308 307 308 308 308 307 307 315 315 314 313 313 314 313 312 310 309 308 308 308
329 329 331 330 328 326 326 326 325 323 323 320 314 312 308 308 307 308 306 307 307 306 306 307 310 315 311 312 312 313 313 312 310 307 307 307 306 307
326 325 324 323 322 320 318 316 315 316 313 310 309 307 307 307 307 306 305 307 305 306 306 308 305 312 312 310 312 312 312 311 307 306 306 304 305 305
322 320 320 316 315 315 314 314 314 313 311 309 307 307 307 306 306 305 305 305 305 305 307 304 304 310 312 309 309 310 309 308 306 305 304 303 304 305
322 317 316 316 315 315 314 313 312 310 309 307 307 307 305 304 304 304 305 304 306 306 305 304 304 311 311 308 307 307 307 305 305 304 302 301 302 304
317 317 316 315 314 314 313 312 310 307 306 307 305 304 304 304 304 304 304 305 306 305 305 304 305 312 308 306 306 306 305 304 304 304 302 300 300 300

GFSNE_925_thetae_024.txt.gz
Theta_e
331 337 335 335 333 333 332 332 329 327 324 329 331 332 332 329 328 328 327 328 329 329 329 329 328 327 329 329 329 328 327 326 324 322 322 321 318 318
336 336 334 332 332 333 333 332 330 329 324 330 331 328 328 329 329 329 328 327 328 329 330 328 327 327 328 329 329 328 328 326 325 324 323 322 320 320
339 339 336 335 334 335 333 333 333 333 332 333 332 330 330 330 330 330 330 329 328 329 328 329 329 329 329 327 325 325 324 326 325 324 324 323 322 322
336 339 339 336 336 336 333 333 332 331 332 330 331 331 331 331 329 328 329 329 327 328 328 330 329 327 326 325 324 324 323 325 325 326 325 325 324 324
337 338 337 338 336 337 334 333 333 335 334 333 332 331 331 331 330 329 329 328 328 326 326 326 327 326 325 323 323 322 322 321 321 321 321 321 321 321
336 338 339 338 336 334 333 334 335 333 333 332 332 331 331 330 330 329 329 328 327 325 326 327 325 323 321 319 318 318 316 315 316 320 322 319 321 322
338 337 339 338 338 337 333 334 334 329 332 331 331 329 329 330 328 329 329 328 326 324 323 322 321 317 318 318 319 319 320 321 321 322 323 322 322 321
340 337 336 336 337 336 333 335 329 331 333 330 329 329 328 328 327 326 328 328 325 324 324 324 320 318 319 320 320 320 321 321 319 320 322 323 322 320
340 336 333 335 336 336 336 335 327 333 332 330 328 328 328 329 325 328 329 328 327 325 325 323 321 321 319 320 320 319 314 312 313 313 314 315 316 317
340 338 333 334 338 338 335 330 330 332 331 329 327 327 329 328 328 329 329 328 327 326 324 320 321 321 320 320 318 311 311 315 317 317 318 318 318 317
340 339 334 336 337 336 335 328 330 332 330 330 330 330 329 328 327 326 326 326 322 322 322 320 320 317 316 318 313 311 315 316 317 317 317 316 316 315
338 337 336 338 338 336 328 330 332 330 330 330 329 327 327 326 325 322 321 323 322 319 315 318 317 318 315 313 311 312 316 316 315 315 315 315 314 314
337 335 335 336 335 332 329 330 330 329 329 329 327 324 321 319 320 320 318 314 315 317 314 315 316 314 313 312 313 315 316 315 314 315 314 313 313 313
334 332 332 332 331 331 331 330 330 329 329 327 323 320 319 321 318 315 313 312 312 311 308 307 309 309 311 313 315 316 315 314 314 314 314 313 312 312
337 336 335 334 333 332 331 330 330 329 327 323 319 319 320 320 318 313 312 310 309 307 307 308 308 310 309 313 317 316 315 314 313 314 314 312 311 311
336 335 333 333 331 329 328 327 328 327 324 320 320 319 321 321 314 312 310 308 308 307 307 306 307 308 307 309 315 315 314 313 313 313 312 311 310 309
334 332 331 330 330 327 326 326 325 324 321 320 319 320 321 317 313 311 308 308 307 306 307 305 305 306 307 311 316 313 312 312 312 312 311 309 307 307
333 332 330 327 326 326 325 325 323 322 322 321 320 320 318 312 310 307 307 306 306 306 305 305 306 307 307 308 311 312 311 311 311 311 308 306 306 305
329 328 328 328 328 327 327 326 325 325 324 322 320 314 310 308 307 307 306 305 305 305 304 305 305 306 307 308 311 308 310 309 310 307 305 306 305 303
328 328 328 328 325 322 322 321 319 319 321 318 311 309 307 306 307 305 305 304 305 304 305 305 304 303 308 308 309 308 307 307 306 304 305 304 302 302
325 325 323 321 320 318 316 315 314 314 312 311 308 306 307 305 305 304 304 305 304 304 304 305 303 306 312 308 306 306 306 305 304 303 304 302 301 301
322 321 318 315 315 315 314 313 312 311 309 308 306 307 305 304 304 304 304 304 304 304 303 304 304 309 310 305 304 305 305 304 305 303 302 300 300 300
320 316 315 315 314 314 313 312 309 309 306 305 306 304 304 303 304 304 304 304 304 303 303 304 305 311 308 305 303 303 303 302 302 302 301 300 299 298

GFSNE_925_thetae_027.txt.gz
Theta_e
336 337 336 335 333 332 332 331 328 325 325 328 330 331 332 332 330 328 328 327 327 327 328 328 329 328 327 327 328 329 329 328 328 326 324 323 322 320
335 333 336 335 333 333 332 332 330 328 324 328 331 328 327 328 329 329 328 328 328 328 328 328 329 329 328 328 329 328 325 326 325 326 325 324 323 322
337 335 335 335 333 332 333 333 333 330 328 331 331 330 330 329 329 329 329 328 329 329 328 329 329 330 330 327 325 325 325 324 323 325 325 325 325 324
337 336 337 338 336 335 335 333 333 331 332 330 330 331 331 330 330 330 330 329 329 328 328 326 325 327 327 326 325 323 323 323 322 323 324 325 325 325
339 333 335 338 339 336 336 336 333 333 335 333 332 332 331 330 330 330 329 329 328 327 327 324 326 327 326 324 322 320 318 320 321 320 320 321 321 320
337 336 334 336 337 337 336 335 333 334 334 331 331 330 329 329 328 328 328 328 329 327 325 323 322 320 318 317 317 318 319 320 320 321 320 318 318 320
338 339 337 336 337 338 337 335 333 335 331 330 331 329 327 327 328 328 328 326 327 328 323 322 323 322 318 317 318 319 319 320 320 320 319 320 322 322
340 340 339 336 338 338 337 338 335 334 331 330 331 329 331 328 327 328 327 325 326 327 324 324 325 323 321 320 319 318 319 317 315 311 311 313 314 315
341 340 339 339 337 335 335 337 335 335 330 329 332 331 329 326 327 327 326 326 327 328 326 325 325 322 321 320 318 316 316 314 309 313 316 317 317 317
342 341 341 339 337 333 334 336 336 335 330 330 331 326 326 327 327 328 327 327 326 326 325 321 321 318 314 313 313 313 314 313 312 315 315 316 316 316
342 341 340 340 338 334 337 337 335 332 330 331 330 330 330 329 328 327 325 325 323 322 321 320 317 316 315 311 309 309 310 310 314 315 314 313 314 315
343 343 342 340 338 335 337 335 333 330 327 330 329 329 328 326 326 324 321 321 320 318 314 316 316 315 313 310 309 310 312 313 314 314 313 312 314 314
342 342 340 338 337 338 337 334 332 329 331 329 329 328 324 320 319 319 318 316 316 315 313 313 314 312 311 310 310 309 309 313 314 314 313 312 313 313
344 341 338 336 335 334 332 331 329 330 330 329 328 325 320 319 320 317 315 312 312 310 309 308 309 307 308 309 310 308 308 313 314 314 312 313 313 313
340 337 334 332 332 332 332 332 332 331 329 328 326 322 319 319 319 316 313 312 310 308 307 306 306 307 306 307 309 308 311 313 312 311 310 311 311 311
335 335 335 335 333 332 331 331 330 329 329 327 323 319 319 320 320 316 312 310 307 307 306 306 305 304 305 306 306 308 310 313 310 309 310 310 310 309
335 335 334 332 331 329 328 326 326 327 325 323 320 319 319 320 320 313 310 307 307 305 305 304 304 305 305 304 306 306 310 309 309 308 308 308 307 306
334 333 332 331 330 328 325 324 323 323 322 321 320 319 319 319 314 310 307 306 305 304 304 304 305 304 303 304 306 310 309 308 307 306 306 305 304 304
334 333 333 332 327 325 325 325 325 325 324 322 321 320 316 312 307 306 306 304 304 304 304 304 304 303 301 302 308 310 308 306 305 304 304 303 303 303
332 331 330 327 327 327 326 324 323 323 323 322 321 315 309 307 306 305 304 303 303 303 304 304 304 303 301 304 309 309 303 305 304 303 302 302 302 301
327 327 328 327 327 324 321 320 318 317 317 315 310 308 307 306 305 304 303 304 303 303 303 303 303 303 308 311 305 303 301 302 303 302 302 302 301 300
326 326 325 322 322 320 316 315 314 313 312 311 309 306 306 305 303 303 303 303 303 302 302 303 304 305 310 307 303 302 300 303 304 303 302 301 300 300
324 322 321 318 316 315 314 313 313 312 310 308 306 306 305 303 303 303 303 303 302 302 302 303 303 303 304 305 303 301 300 302 301 301 302 301 300 298

GFSNE_925_thetae_030.txt.gz
Theta_e
336 336 335 334 333 332 331 329 328 332 331 328 329 330 331 331 330 329 329 327 327 327 327 326 327 328 328 329 329 328 328 328 327 327 327 326 324 323
337 334 336 335 334 333 332 332 330 328 332 327 330 329 328 328 328 329 328 328 328 328 328 328 328 328 329 328 329 329 326 325 325 325 324 325 325 324
337 334 333 333 335 333 332 332 331 329 329 329 330 330 329 330 328 329 330 328 329 328 328 328 327 328 328 330 328 325 325 324 323 323 323 324 325 325
338 337 335 334 334 333 333 332 332 332 332 331 329 330 331 330 330 330 329 329 329 328 328 327 326 325 325 326 326 325 324 323 322 321 321 321 321 323
337 337 335 335 337 336 335 334 333 332 331 331 332 331 331 330 329 327 327 328 328 327 328 326 325 325 325 322 319 318 317 317 317 316 317 317 318 318
338 335 337 334 336 337 337 336 335 333 333 333 332 331 330 329 328 327 327 328 327 325 327 325 322 321 321 318 317 317 318 319 319 320 320 320 320 321
342 338 337 338 335 335 336 336 335 333 333 333 331 330 329 327 328 327 327 327 326 323 327 325 323 323 324 322 321 320 318 319 318 318 316 312 312 314
344 341 338 337 337 336 337 338 337 335 334 333 330 329 328 329 329 326 326 328 326 327 326 327 327 325 324 321 321 321 319 317 318 317 310 312 315 316
345 343 341 339 338 337 335 338 337 337 336 333 332 328 330 330 327 326 327 326 326 327 327 326 325 323 320 316 314 313 313 313 313 314 311 315 315 316
345 344 343 342 340 339 338 337 335 336 335 334 331 329 331 328 327 328 328 327 326 326 325 324 321 319 314 313 312 311 309 309 309 310 312 314 313 312
345 344 343 343 342 340 338 336 334 336 335 334 331 330 331 330 329 329 327 325 326 323 320 320 317 315 313 310 309 309 309 310 311 311 313 314 314 313
344 343 343 343 341 340 338 335 336 336 334 331 329 330 329 329 327 326 325 324 322 320 315 316 315 314 312 309 308 308 309 307 309 312 313 314 314 312
342 342 343 343 342 339 338 335 335 334 332 328 330 329 328 326 323 319 319 319 319 317 313 313 312 312 311 310 307 306 306 307 306 309 312 311 309 309
343 345 344 343 340 338 337 338 336 332 329 330 329 328 326 322 318 319 316 315 314 312 310 309 311 307 308 310 308 306 307 306 306 309 311 308 306 306
347 348 345 340 337 335 334 333 332 329 329 329 328 327 324 319 319 319 316 313 312 310 307 306 305 305 305 306 307 308 309 309 310 310 310 309 309 309
345 341 337 334 332 332 332 332 331 331 330 329 327 325 319 318 319 319 316 313 310 309 307 305 304 304 304 305 305 307 307 310 312 309 308 308 308 308
336 333 333 333 332 331 330 330 330 329 328 327 326 321 319 319 319 319 314 311 307 306 305 304 304 304 304 304 304 305 308 311 309 307 307 307 307 307
333 331 330 332 330 329 327 326 325 326 326 325 323 319 319 319 319 314 310 307 306 304 303 303 304 304 304 304 304 306 311 311 306 305 306 306 306 305
332 331 332 333 332 330 328 326 324 324 323 322 321 320 319 319 314 310 306 305 303 303 303 303 303 304 306 307 305 309 310 307 304 304 305 305 304 303
334 333 333 333 332 329 325 324 323 324 323 322 321 321 320 315 308 306 304 303 303 303 303 303 302 303 304 306 307 309 307 302 302 304 304 304 303 302
334 335 335 334 332 326 325 325 324 322 321 321 321 319 312 307 306 304 303 303 303 303 304 304 302 303 305 308 307 306 305 300 301 302 303 303 303 302
332 331 330 329 326 326 324 321 319 318 317 316 314 310 307 306 304 303 303 303 303 302 302 302 303 303 304 306 306 305 302 300 301 302 302 302 302 302
328 327 327 327 325 322 319 317 315 314 313 312 310 307 305 305 304 303 303 303 302 301 301 302 302 302 302 302 303 301 300 299 300 301 303 302 301 299

GFSNE_925_thetae_033.txt.gz
Theta_e
338 336 338 338 337 335 333 334 334 335 334 335 333 331 334 334 332 331 334 333 328 327 327 327 327 327 327 328 328 328 328 328 326 325 325 326 325 326
340 340 338 338 338 337 336 334 333 334 335 333 333 333 332 329 330 329 330 329 328 328 328 328 328 328 328 327 328 327 329 328 325 324 324 324 323 324
340 339 340 340 338 337 337 336 335 333 334 334 333 333 328 330 332 329 329 330 332 329 329 328 328 328 327 327 327 328 326 325 325 324 323 322 322 322
343 341 340 338 339 338 336 337 335 335 334 337 336 335 331 333 331 331 333 331 330 331 328 328 327 327 326 325 326 326 325 324 323 320 319 320 320 320
344 342 341 340 338 336 337 336 335 336 336 335 335 335 335 334 334 331 330 331 328 328 327 328 327 325 324 324 321 318 317 317 317 318 318 318 319 319
346 343 341 341 339 339 339 338 337 337 337 336 335 336 336 335 333 332 331 331 331 327 323 324 328 324 322 321 321 318 317 318 318 319 319 319 320 318
346 344 342 340 338 337 337 340 339 338 338 337 337 336 335 334 332 329 332 331 330 329 328 329 328 326 325 326 325 322 321 320 319 318 319 318 314 310
347 346 344 341 337 337 334 336 337 339 339 338 336 335 335 335 331 332 331 329 331 331 330 328 329 327 326 325 323 320 318 317 318 317 317 317 311 313
347 347 346 344 340 338 337 335 336 337 337 340 338 337 336 334 332 333 331 332 331 331 329 328 327 327 324 322 318 314 313 312 311 310 310 313 313 314
347 347 347 345 343 340 341 339 338 338 337 336 338 337 334 335 332 332 332 332 331 330 329 327 323 323 320 319 317 314 310 308 309 310 311 310 310 313
348 347 347 346 344 343 340 342 340 340 337 335 336 336 332 330 331 332 331 330 328 326 326 324 320 320 317 317 314 311 307 308 309 308 309 311 313 313
349 348 346 346 345 344 341 342 342 340 338 335 335 333 330 330 330 329 330 327 324 323 323 319 318 317 316 311 312 311 309 309 308 307 306 306 312 314
349 348 347 346 344 343 342 342 342 340 337 337 335 333 332 330 329 328 328 325 323 322 320 318 317 315 312 311 310 309 309 309 309 310 309 310 312 310
348 348 346 347 344 342 340 340 339 336 336 334 333 331 331 329 327 324 322 322 322 321 319 312 314 312 310 309 309 308 308 308 309 309 310 313 312 310
348 346 346 346 343 341 340 338 336 335 334 333 332 331 330 328 324 321 319 318 316 314 313 309 311 309 309 309 308 308 308 307 308 311 312 310 308 308
345 343 342 342 340 339 337 337 336 335 334 333 332 330 327 324 322 321 320 318 317 317 313 307 305 306 307 307 308 308 307 307 309 311 310 308 306 306
332 330 334 335 336 334 331 331 332 332 332 332 331 328 325 323 322 321 320 319 317 316 313 310 308 306 307 309 308 307 306 308 310 309 308 305 305 307
331 331 334 331 331 331 331 331 331 331 331 330 329 327 324 323 323 321 319 317 316 314 311 307 307 307 307 308 307 307 306 307 308 306 305 305 307 307
333 334 332 331 331 330 329 329 329 329 329 327 327 325 323 323 322 320 317 315 313 310 308 307 307 307 308 309 306 307 308 307 306 303 303 306 307 308
332 333 333 332 331 330 329 328 328 327 326 325 325 324 324 323 321 318 315 313 310 308 307 307 307 307 307 307 307 307 307 307 304 302 303 305 307 306
333 334 333 333 333 332 330 328 327 326 325 325 324 323 322 320 317 315 312 308 307 307 307 307 307 304 305 309 308 306 305 303 301 301 302 305 306 304
334 334 333 334 334 332 328 327 326 324 324 323 322 320 317 315 314 311 309 307 307 306 306 306 306 307 307 306 306 305 304 303 301 300 301 304 304 303
334 335 334 333 331 328 326 325 323 322 320 318 317 315 313 312 310 308 307 307 305 306 306 306 306 306 306 306 305 304 303 302 300 300 302 303 302 301

GFSNE_925_thetae_036.txt.gz
Theta_e
347 344 340 339 338 337 336 335 335 338 337 337 333 335 334 335 336 336 337 336 334 329 327 327 327 327 327 327 327 327 328 328 328 328 325 325 324 326
344 342 342 337 339 338 337 336 335 334 336 334 335 335 335 335 336 335 337 337 333 329 328 328 328 328 328 328 327 327 327 328 329 326 325 324 323 323
346 343 345 341 338 337 338 337 336 335 335 334 335 337 338 337 335 335 336 334 334 333 329 328 329 328 328 328 327 326 326 326 325 325 324 324 323 322
349 346 344 343 343 339 338 337 336 337 336 336 336 337 339 337 338 339 335 333 333 332 332 330 328 328 327 327 326 324 324 324 321 318 317 317 317 317
351 348 346 343 343 337 338 337 338 338 339 337 336 337 335 337 338 338 337 335 334 332 330 328 327 327 325 324 323 321 320 318 317 317 318 318 319 319
353 350 347 343 342 342 339 340 339 338 338 338 336 335 337 336 336 335 335 336 333 333 331 328 327 327 327 322 321 321 324 321 320 319 319 318 319 319
354 351 349 347 343 342 340 340 340 340 337 338 338 336 336 336 336 335 334 333 334 335 332 332 330 331 328 327 327 326 325 323 321 320 320 318 318 318
355 352 350 348 345 342 340 339 340 342 341 337 338 337 337 336 335 335 333 334 333 333 334 332 330 329 329 328 326 324 321 314 313 313 313 313 313 317
356 354 352 350 347 346 341 337 337 339 339 340 340 338 338 338 337 336 335 334 333 333 334 331 329 328 326 325 322 320 318 314 310 309 309 309 310 310
356 355 354 352 350 348 347 342 339 339 338 338 340 340 340 339 338 337 335 334 334 333 332 331 327 324 323 322 320 317 314 310 307 308 309 308 309 310
356 355 355 354 352 349 348 347 344 340 340 338 339 339 340 338 337 335 334 333 332 331 330 328 324 321 321 320 317 315 312 311 309 308 307 306 306 305
355 356 354 354 353 351 347 349 347 345 344 341 339 338 338 336 332 332 333 332 331 328 327 325 320 320 320 318 315 314 313 312 310 309 309 310 309 310
353 354 354 352 351 350 347 346 346 346 345 343 340 338 337 336 334 331 333 332 328 325 325 324 320 319 318 317 314 311 311 310 310 311 311 311 311 312
354 353 353 353 350 348 347 344 344 345 343 340 339 337 336 335 334 333 333 331 325 325 325 321 320 319 317 315 312 310 310 310 310 310 310 311 312 313
355 355 353 352 350 346 345 341 343 342 340 339 338 337 335 334 333 331 329 328 327 326 323 323 320 316 314 311 310 310 310 310 309 309 310 312 313 311
351 352 350 348 347 343 339 339 340 341 338 337 336 335 334 333 332 329 326 325 323 321 322 319 317 315 311 309 309 309 309 309 309 309 312 312 311 308
339 344 341 338 333 335 334 337 337 337 337 336 335 335 334 331 329 327 324 324 323 321 321 319 316 314 312 311 310 310 310 309 309 309 310 310 308 307
338 334 333 333 333 335 337 337 335 337 337 336 335 335 333 330 328 326 325 324 323 321 319 316 312 310 309 310 310 310 310 309 309 309 308 307 306 306
335 332 332 334 334 335 334 334 334 335 335 335 334 333 331 329 326 326 325 324 322 319 317 313 310 310 311 312 310 308 308 309 308 308 306 305 305 305
334 333 333 334 335 335 335 334 334 335 335 334 332 331 329 327 326 326 324 321 319 317 313 311 309 311 311 311 309 308 309 309 307 306 305 304 304 305
337 336 335 334 334 334 334 334 334 334 333 332 330 328 327 326 325 323 321 318 315 313 311 310 310 309 308 307 310 310 308 307 305 305 303 303 304 307
338 337 336 335 335 335 335 334 332 331 330 329 328 327 326 324 322 321 318 315 311 310 310 309 309 309 309 309 309 309 308 307 306 304 302 302 304 305
336 336 337 338 336 335 334 332 331 330 329 328 326 325 324 322 320 317 314 312 311 310 309 309 309 309 309 309 308 308 308 307 305 304 303 302 302 304

GFSNE_925_thetae_042.txt.gz
Theta_e
353 352 339 345 341 339 337 337 340 347 346 340 336 336 337 336 336 336 335 337 335 333 331 328 326 326 326 327 327 328 327 327 327 328 328 327 325 324
354 354 348 340 342 341 339 338 337 338 346 340 338 337 336 336 337 337 338 337 339 338 336 335 333 330 328 328 327 328 328 327 326 326 325 324 323 320
355 353 351 342 338 342 340 339 339 338 341 337 341 338 337 335 337 337 336 337 337 336 335 331 330 329 329 329 328 328 327 327 325 323 321 318 317 317
354 353 354 349 340 341 346 340 339 339 339 342 341 340 338 338 336 339 339 338 339 336 335 333 333 332 330 328 327 327 327 324 322 319 320 318 318 318
359 354 351 351 347 339 341 343 341 340 342 339 341 341 342 342 340 338 339 339 334 336 335 334 333 331 331 329 328 326 324 322 320 322 322 321 320 320
361 359 355 352 348 347 340 339 341 343 340 341 341 340 340 341 341 341 341 340 339 339 335 334 334 333 332 331 329 327 325 323 321 325 324 321 319 319
358 360 358 355 351 347 349 345 342 339 346 341 343 342 341 342 341 339 339 338 338 338 336 334 335 335 334 333 331 329 327 324 324 325 317 314 314 313
362 360 360 358 356 352 348 348 342 343 341 343 343 343 342 340 341 340 338 338 339 336 335 335 335 335 333 334 332 328 328 324 322 318 314 310 308 307
363 362 360 360 357 355 352 348 346 343 341 339 341 342 343 342 342 342 340 339 337 337 336 335 333 335 332 327 325 323 321 319 317 313 312 309 307 307
362 363 362 360 360 357 353 350 347 344 343 343 341 339 340 342 342 342 340 338 338 336 336 335 333 333 331 324 323 322 320 318 315 314 312 310 310 310
362 362 362 361 360 359 355 351 347 346 343 342 342 345 343 339 340 342 341 338 339 337 337 336 334 334 328 323 323 322 320 317 316 313 311 310 311 311
359 361 361 361 361 360 356 354 352 348 346 344 342 341 341 340 342 343 341 340 338 337 335 335 334 331 323 321 321 320 320 318 313 312 312 312 312 311
359 359 359 359 361 361 360 355 354 353 348 346 344 341 341 339 340 340 340 338 337 335 333 332 332 328 323 322 321 320 318 314 312 312 312 312 312 311
361 358 357 358 358 359 360 359 355 354 352 348 345 342 341 339 337 338 339 339 337 334 333 331 327 325 322 322 322 319 317 312 311 312 313 311 312 314
363 361 360 357 358 358 358 359 358 354 353 348 347 343 341 340 339 339 338 338 336 335 330 328 325 323 322 322 321 318 315 312 311 312 312 313 311 311
365 362 361 359 357 355 351 353 356 354 353 350 347 345 342 341 340 339 339 337 335 335 330 329 327 320 321 321 319 316 313 311 311 313 313 311 310 310
363 360 359 358 358 355 348 347 347 352 351 350 348 344 342 341 340 339 338 337 335 333 331 329 326 323 321 318 317 314 312 313 314 312 311 310 311 309
358 356 359 359 355 350 345 346 346 351 350 349 346 343 341 339 338 337 336 335 332 331 329 330 327 325 322 319 315 313 312 314 311 310 311 311 309 308
356 351 354 351 347 347 345 346 347 348 349 348 344 341 338 337 337 335 334 333 331 329 328 328 327 324 323 320 315 316 314 312 310 311 311 309 308 307
349 348 348 348 347 344 344 344 345 347 347 346 342 338 337 337 335 334 333 331 330 329 329 326 326 324 317 316 316 312 314 310 311 312 309 308 306 305
339 337 337 338 340 340 339 339 339 339 339 339 338 337 336 335 334 333 332 330 329 329 327 324 321 318 315 313 312 310 310 311 311 309 308 306 306 305
330 332 334 337 336 338 337 338 338 338 336 332 336 337 335 334 333 332 331 329 329 328 324 322 318 315 314 313 312 311 313 311 311 310 308 306 304 304
336 336 336 333 337 336 336 335 335 334 335 338 337 336 335 333 332 330 330 327 325 324 320 315 313 312 312 312 312 313 311 310 311 309 309 306 305 303

GFSNE_925_thetae_045.txt.gz
Theta_e
350 342 342 341 342 340 338 336 338 337 337 340 339 338 337 337 337 337 335 335 333 332 331 330 328 327 326 326 327 327 327 327 327 327 326 325 324 324
356 351 340 341 343 344 339 337 337 337 334 340 337 337 338 337 336 336 335 336 338 337 337 336 334 333 331 329 327 327 328 328 327 326 324 322 319 317
357 355 352 341 338 342 342 339 338 337 337 337 339 338 337 337 337 336 337 338 335 336 337 336 334 331 330 330 329 329 328 327 327 324 321 318 317 318
358 356 354 352 348 335 341 340 339 339 337 337 339 339 336 336 336 337 337 335 335 337 337 337 335 333 332 330 329 327 327 327 324 322 319 320 319 320
356 356 355 352 350 349 338 342 342 339 339 339 340 339 337 337 337 336 336 335 337 339 336 334 333 333 332 332 329 328 326 324 323 321 321 324 323 321
356 359 357 354 351 350 348 338 342 344 340 342 339 341 341 341 339 339 338 338 338 337 335 337 334 333 333 333 331 330 328 326 324 323 324 325 322 316
354 353 358 358 356 350 349 344 338 342 344 341 341 340 339 342 344 340 339 338 339 339 338 338 334 333 333 334 333 332 329 328 326 325 324 317 312 312
359 356 355 359 359 357 352 347 341 339 339 345 340 341 342 340 341 342 340 341 341 339 339 339 335 336 335 335 333 334 331 329 323 322 317 311 309 306
361 360 358 357 359 359 356 353 349 346 340 337 343 341 340 341 340 342 340 339 338 337 337 338 334 334 333 332 328 325 323 322 320 317 313 311 310 310
361 361 360 359 358 359 358 356 351 349 348 345 339 339 342 341 340 340 342 339 339 337 336 335 335 334 332 330 324 323 322 321 317 315 313 311 311 311
361 361 361 361 360 359 359 356 353 351 350 348 347 342 339 339 343 344 343 340 338 337 337 337 335 334 332 329 323 322 322 320 317 315 313 311 311 311
361 360 361 361 361 361 359 357 354 352 350 347 347 344 343 342 342 342 342 339 338 337 336 334 335 334 333 329 323 322 321 319 316 315 312 312 312 312
361 360 359 360 361 362 361 358 357 355 352 348 346 345 342 344 346 343 340 340 339 337 336 334 334 334 331 323 323 321 319 318 315 312 312 311 313 312
363 362 360 359 358 359 361 361 360 357 354 349 346 344 342 340 342 343 341 342 341 340 336 334 333 331 327 322 321 320 317 315 312 311 312 312 312 312
365 364 364 362 360 358 357 358 359 360 355 353 348 347 343 343 340 340 341 341 340 338 336 335 333 331 327 322 321 320 318 316 312 311 312 313 311 310
367 366 365 364 363 360 358 356 355 351 354 355 354 351 347 342 340 340 338 339 338 338 338 336 332 327 323 321 321 320 318 313 311 310 313 311 310 310
362 359 358 359 358 358 356 354 353 352 349 353 354 353 349 343 341 340 339 337 337 336 335 335 328 326 325 320 320 317 315 314 311 313 312 310 310 309
355 354 355 357 359 359 358 358 353 350 348 349 352 353 350 345 343 340 340 337 337 335 334 332 329 326 323 321 318 312 312 312 314 311 310 311 309 308
353 355 353 355 358 358 358 355 351 350 348 347 349 350 350 348 343 343 339 337 336 335 333 331 328 325 319 318 319 316 314 312 312 310 310 311 308 305
347 349 348 347 348 349 348 348 348 347 346 345 341 339 340 339 339 338 337 336 335 332 329 329 327 325 323 320 318 316 314 315 310 310 311 310 307 306
338 339 338 338 339 338 340 341 342 342 340 339 333 328 332 333 326 334 335 334 332 330 328 327 328 328 326 321 312 312 314 315 313 310 310 309 307 305
331 332 332 332 333 336 336 338 338 338 338 338 329 332 334 334 334 332 333 330 330 328 327 327 327 325 318 313 311 311 311 312 311 311 310 308 306 302
334 333 333 334 336 335 336 337 338 337 336 335 336 336 335 334 333 332 331 329 329 329 328 321 321 316 314 314 313 312 311 312 311 310 309 309 306 304

GFSNE_925_thetae_048.txt.gz
Theta_e
347 346 343 341 342 341 338 337 336 335 333 340 339 338 338 337 337 335 335 333 332 331 330 329 328 328 327 326 326 326 327 327 327 327 326 325 323 321
353 351 345 341 340 342 341 337 336 336 331 337 339 339 338 337 337 337 337 335 333 334 334 334 332 331 330 330 329 327 327 328 328 327 325 322 319 317
354 355 352 342 339 341 343 341 337 337 335 336 337 338 338 337 337 337 336 335 334 337 336 336 335 334 333 331 330 329 329 328 327 326 323 319 319 319
357 356 356 354 349 337 340 342 340 338 337 335 335 338 337 338 337 336 336 335 336 337 334 336 336 336 334 332 330 329 328 327 326 323 321 319 322 322
356 357 356 356 353 350 340 338 339 340 339 338 337 336 339 337 337 337 336 336 337 336 334 337 335 336 336 332 331 329 328 326 324 324 322 321 325 324
355 355 355 356 355 354 350 346 339 339 342 339 339 338 339 338 336 336 336 336 337 335 335 338 337 334 333 332 332 331 329 327 326 325 324 323 324 319
354 354 355 355 356 354 353 351 347 346 340 344 341 340 340 339 339 338 336 337 337 337 337 337 334 337 335 333 332 332 331 329 328 327 325 323 312 309
356 353 352 353 353 354 355 355 354 350 344 340 342 340 339 339 340 341 339 338 337 338 338 338 336 338 335 334 334 334 333 331 330 328 323 314 310 310
357 356 356 354 353 353 352 353 356 356 353 345 339 341 340 340 339 339 340 339 339 339 338 339 339 338 336 335 334 333 333 332 325 324 319 313 311 310
358 358 358 357 356 355 355 355 355 356 356 352 345 343 339 339 339 339 339 339 340 339 339 338 338 338 335 334 333 332 326 323 322 321 315 312 311 310
359 359 359 359 358 358 356 356 355 354 353 355 355 353 349 341 339 339 340 339 338 338 338 337 337 337 335 334 332 330 324 322 321 317 315 312 311 310
360 360 360 359 359 359 359 357 356 355 354 352 351 350 351 350 345 340 340 339 339 337 338 336 335 335 333 333 331 330 325 323 320 316 315 312 311 311
360 360 360 360 360 360 360 359 358 358 357 355 352 350 346 347 345 343 342 341 340 339 339 337 335 334 333 330 331 330 327 322 320 317 315 312 312 312
362 362 361 360 360 359 359 359 360 360 358 357 355 351 349 345 343 344 343 342 341 340 340 338 336 334 333 324 323 326 325 321 319 316 313 312 312 312
364 364 363 363 362 361 360 359 358 359 356 357 357 357 351 350 346 343 343 343 342 341 339 338 336 333 332 331 324 321 321 319 315 313 312 312 312 311
367 366 366 365 364 363 362 361 360 355 352 353 355 356 357 353 349 344 342 342 341 340 338 337 334 334 331 331 326 319 317 315 312 312 311 312 311 309
366 363 361 359 359 359 359 359 357 357 351 350 350 353 354 353 351 346 342 341 341 341 335 334 333 335 332 331 320 320 318 317 313 310 312 311 310 309
358 355 355 354 355 356 358 359 358 357 354 350 347 348 350 351 351 349 343 341 340 340 336 333 331 326 323 321 321 319 317 314 312 311 312 310 310 308
353 352 351 352 353 354 356 357 356 356 353 347 347 347 346 347 347 347 346 342 341 341 339 332 328 324 322 321 318 318 313 313 313 314 311 310 310 307
345 345 345 345 346 347 347 347 346 345 344 344 342 336 334 336 337 339 335 333 332 333 332 331 328 325 324 321 317 316 311 311 313 311 310 310 308 306
340 340 340 339 338 336 336 336 336 337 338 340 339 333 334 331 334 327 329 334 333 331 330 329 328 327 325 322 315 317 317 316 313 311 310 310 308 307
332 333 332 332 333 334 332 332 335 336 336 336 337 330 331 332 331 334 333 333 331 330 329 328 327 326 323 321 313 313 315 315 312 310 311 310 308 304
334 334 334 334 334 335 335 335 334 336 337 336 334 334 335 335 334 332 332 330 329 328 328 326 325 322 322 321 316 312 313 313 313 311 311 310 309 307